EW7272 Weather Reports


Display with metric or nautical units.
time (UTC)temp
F
wind
direction
speed
MPH
gust
MPH
rain 1hr
in
rain 24hr
in
rain mn
in
humidity
%
barometer
mb
20260906204519 100 55 3.0 8.0 0.00 0.00 0.00 32 1012.4
20260906204010 100 57 3.0 8.0 0.00 0.00 0.00 33 1012.5
20260906203514 99 84 4.0 8.0 0.00 0.00 0.00 34 1012.7
20260906203028 99 60 2.0 11.0 0.00 0.00 0.00 34 1012.8
20260906202516 100 78 4.0 11.0 0.00 0.00 0.00 34 1012.7
20260906202014 100 154 2.0 8.0 0.00 0.00 0.00 34 1012.7
20260906201528 100 250 3.0 8.0 0.00 0.00 0.00 34 1012.7
20260906201020 100 69 3.0 10.0 0.00 0.00 0.00 34 1012.9
20260906200515 100 202 4.0 10.0 0.00 0.00 0.00 35 1012.9
20260906200032 100 208 4.0 8.0 0.00 0.00 0.00 34 1013.0
20260906195507 100 156 3.0 9.0 0.00 0.00 0.00 34 1013.1
20260906195015 100 127 4.0 9.0 0.00 0.00 0.00 34 1013.3
20260906194518 100 163 3.0 9.0 0.00 0.00 0.00 35 1013.3
20260906194019 100 126 4.0 9.0 0.00 0.00 0.00 35 1013.4
20260906193512 99 64 6.0 9.0 0.00 0.00 0.00 35 1013.4
20260906193018 99 106 3.0 9.0 0.00 0.00 0.00 37 1013.5
20260906192514 99 137 1.0 9.0 0.00 0.00 0.00 36 1013.5
20260906192014 100 181 4.0 9.0 0.00 0.00 0.00 34 1013.6
20260906191536 100 194 3.0 12.0 0.00 0.00 0.00 34 1013.6
20260906191013 99 204 3.0 12.0 0.00 0.00 0.00 36 1013.6
20260906190516 99 122 5.0 13.0 0.00 0.00 0.00 37 1013.7
20260906190039 98 39 4.0 13.0 0.00 0.00 0.00 37 1013.8
20260906185517 97 61 4.0 11.0 0.00 0.00 0.00 38 1013.9
20260906185019 97 142 2.0 11.0 0.00 0.00 0.00 39 1014.0
20260906184536 96 22 3.0 9.0 0.00 0.00 0.00 40 1014.0
20260906184018 96 83 1.0 9.0 0.00 0.00 0.00 39 1014.1
20260906183511 96 66 3.0 9.0 0.00 0.00 0.00 40 1014.2
20260906183019 97 138 3.0 7.0 0.00 0.00 0.00 39 1014.2
20260906182512 96 157 1.0 6.0 0.00 0.00 0.00 41 1014.3
20260906182014 96 78 2.0 7.0 0.00 0.00 0.00 39 1014.4
20260906181533 97 85 1.0 7.0 0.00 0.00 0.00 39 1014.4
20260906181013 97 127 1.0 7.0 0.00 0.00 0.00 40 1014.5
20260906180516 97 153 1.0 9.0 0.00 0.00 0.00 40 1014.6
20260906180027 98 123 1.0 9.0 0.00 0.00 0.00 39 1014.6
20260906175515 98 59 2.0 10.0 0.00 0.00 0.00 39 1014.6
20260906175018 98 80 2.0 9.0 0.00 0.00 0.00 39 1014.8
20260906174529 98 138 2.0 9.0 0.00 0.00 0.00 39 1014.9
20260906174015 97 101 2.0 7.0 0.00 0.00 0.00 40 1015.0
20260906173519 98 117 3.0 7.0 0.00 0.00 0.00 40 1015.1
20260906173043 98 189 4.0 7.0 0.00 0.00 0.00 40 1015.2
20260906172518 97 115 2.0 6.0 0.00 0.00 0.00 40 1015.2
20260906172010 97 180 3.0 7.0 0.00 0.00 0.00 40 1015.3
20260906171520 96 157 3.0 7.0 0.00 0.00 0.00 42 1015.3
20260906171016 96 129 2.0 6.0 0.00 0.00 0.00 42 1015.5
20260906170511 96 123 2.0 7.0 0.00 0.00 0.00 41 1015.5
20260906170026 96 210 3.0 7.0 0.00 0.00 0.00 41 1015.7
20260906165514 95 117 1.0 10.0 0.00 0.00 0.00 42 1015.7
20260906165003 95 101 3.0 10.0 0.00 0.00 0.00 43 1015.8
20260906164505 95 194 4.0 7.0 0.00 0.00 0.00 42 1015.8
20260906164003 96 198 2.0 6.0 0.00 0.00 0.00 42 1015.9
20260906163506 95 188 2.0 6.0 0.00 0.00 0.00 43 1015.9
20260906163032 95 257 1.0 6.0 0.00 0.00 0.00 43 1015.9
20260906162507 94 194 1.0 6.0 0.00 0.00 0.00 44 1016.0
20260906162008 93 139 2.0 6.0 0.00 0.00 0.00 44 1015.9
20260906161508 93 176 1.0 7.0 0.00 0.00 0.00 46 1015.8
20260906161002 92 317 1.0 7.0 0.00 0.00 0.00 47 1015.9
20260906160502 92 244 2.0 7.0 0.00 0.00 0.00 47 1015.8
20260906160011 92 248 3.0 6.0 0.00 0.00 0.00 47 1015.7
20260906155503 91 238 1.0 5.0 0.00 0.00 0.00 48 1015.8
20260906155003 91 227 1.0 6.0 0.00 0.00 0.00 50 1015.8
20260906154506 91 247 2.0 6.0 0.00 0.00 0.00 50 1015.8
20260906154004 90 207 1.0 5.0 0.00 0.00 0.00 51 1015.8
20260906153511 90 207 2.0 5.0 0.00 0.00 0.00 53 1015.8
20260906153009 89 207 1.0 4.0 0.00 0.00 0.00 52 1015.7
20260906152509 89 198 2.0 5.0 0.00 0.00 0.00 53 1015.7
20260906152008 89 197 3.0 5.0 0.00 0.00 0.00 52 1015.6
20260906151534 89 229 2.0 6.0 0.00 0.00 0.00 53 1015.6
20260906151008 88 217 3.0 8.0 0.00 0.00 0.00 53 1015.5
20260906150511 88 233 4.0 7.0 0.00 0.00 0.00 53 1015.5
20260906150023 88 250 3.0 7.0 0.00 0.00 0.00 54 1015.4
20260906145511 87 216 4.0 7.0 0.00 0.00 0.00 55 1015.5
20260906145004 87 198 3.0 7.0 0.00 0.00 0.00 55 1015.4
20260906144506 86 194 2.0 7.0 0.00 0.00 0.00 56 1015.5
20260906144006 86 221 4.0 7.0 0.00 0.00 0.00 56 1015.4
20260906143517 86 205 4.0 8.0 0.00 0.00 0.00 56 1015.5
20260906143006 86 254 3.0 8.0 0.00 0.00 0.00 57 1015.4
20260906142509 85 200 3.0 7.0 0.00 0.00 0.00 58 1015.4
20260906142016 85 217 4.0 8.0 0.00 0.00 0.00 58 1015.4
20260906141509 85 205 4.0 8.0 0.00 0.00 0.00 58 1015.4
20260906141016 85 190 4.0 7.0 0.00 0.00 0.00 58 1015.4
20260906140512 84 205 2.0 6.0 0.00 0.00 0.00 59 1015.3
20260906140023 84 186 3.0 7.0 0.00 0.00 0.00 59 1015.3
20260906135518 84 217 4.0 7.0 0.00 0.00 0.00 60 1015.3
20260906135011 83 216 3.0 6.0 0.00 0.00 0.00 61 1015.3
20260906134531 83 204 3.0 7.0 0.00 0.00 0.00 61 1015.3
20260906134004 83 187 4.0 7.0 0.00 0.00 0.00 61 1015.3
20260906133518 82 207 3.0 6.0 0.00 0.00 0.00 63 1015.3
20260906133004 81 202 3.0 6.0 0.00 0.00 0.00 64 1015.3
20260906132503 81 215 3.0 6.0 0.00 0.00 0.00 65 1015.3
20260906132003 80 214 2.0 4.0 0.00 0.00 0.00 67 1015.3
20260906131509 79 209 1.0 3.0 0.00 0.00 0.00 68 1015.1
20260906131005 79 209 1.0 3.0 0.00 0.00 0.00 69 1015.1
20260906130505 78 360 1.0 2.0 0.00 0.00 0.00 70 1015.0
20260906130027 77 360 0.0 2.0 0.00 0.00 0.00 71 1014.9
20260906125519 77 360 0.0 1.0 0.00 0.00 0.00 72 1014.9
20260906125021 77 360 0.0 1.0 0.00 0.00 0.00 71 1014.8
20260906124518 76 360 0.0 1.0 0.00 0.00 0.00 71 1014.8
20260906124023 76 360 0.0 1.0 0.00 0.00 0.00 71 1014.8
20260906123514 76 360 0.0 0.0 0.00 0.00 0.00 70 1014.7
20260906123032 77 360 0.0 0.0 0.00 0.00 0.00 69 1014.7
20260906122504 77 360 0.0 0.0 0.00 0.00 0.00 69 1014.7
20260906122004 77 360 0.0 0.0 0.00 0.00 0.00 69 1014.6
20260906121506 77 360 0.0 1.0 0.00 0.00 0.00 68 1014.4
20260906121003 77 360 0.0 2.0 0.00 0.00 0.00 68 1014.4
20260906120503 77 360 0.0 2.0 0.00 0.00 0.00 68 1014.4
20260906120009 77 360 0.0 2.0 0.00 0.00 0.00 68 1014.3
20260906115507 77 360 1.0 2.0 0.00 0.00 0.00 68 1014.3
20260906115006 77 360 0.0 3.0 0.00 0.00 0.00 68 1014.2
20260906114514 77 360 1.0 3.0 0.00 0.00 0.00 68 1014.2
20260906114016 77 360 1.0 3.0 0.00 0.00 0.00 68 1014.1
20260906113518 77 360 1.0 3.0 0.00 0.00 0.00 68 1014.1
20260906113027 76 360 1.0 2.0 0.00 0.00 0.00 69 1014.1
20260906112512 76 360 0.0 1.0 0.00 0.00 0.00 69 1013.9
20260906112020 76 360 0.0 0.0 0.00 0.00 0.00 68 1013.8
20260906111533 77 360 0.0 0.0 0.00 0.00 0.00 67 1013.8
20260906111015 77 360 0.0 1.0 0.00 0.00 0.00 66 1013.7
20260906110504 78 360 0.0 1.0 0.00 0.00 0.00 65 1013.8
20260906110013 78 360 0.0 1.0 0.00 0.00 0.00 64 1013.8
20260906105509 79 360 0.0 1.0 0.00 0.00 0.00 63 1013.7
20260906105006 79 360 0.0 2.0 0.00 0.00 0.00 63 1013.6
20260906104514 79 360 0.0 2.0 0.00 0.00 0.00 63 1013.5
20260906104008 79 360 0.0 3.0 0.00 0.00 0.00 62 1013.5
20260906103511 79 360 1.0 3.0 0.00 0.00 0.00 62 1013.5
20260906103015 79 360 1.0 5.0 0.00 0.00 0.00 62 1013.5
20260906102512 79 360 2.0 5.0 0.00 0.00 0.00 62 1013.5
20260906102014 79 360 2.0 4.0 0.00 0.00 0.00 63 1013.5
20260906101523 79 360 2.0 4.0 0.00 0.00 0.00 63 1013.4
20260906101014 79 360 2.0 4.0 0.00 0.00 0.00 64 1013.4
20260906100516 78 360 1.0 4.0 0.00 0.00 0.00 64 1013.4
20260906100026 78 360 2.0 4.0 0.00 0.00 0.00 65 1013.4
20260906095516 78 360 2.0 4.0 0.00 0.00 0.00 65 1013.5
20260906095003 78 360 2.0 4.0 0.00 0.00 0.00 66 1013.5
20260906094517 78 360 1.0 2.0 0.00 0.00 0.00 66 1013.4
20260906094008 77 360 1.0 2.0 0.00 0.00 0.00 67 1013.5
20260906093510 77 360 0.0 1.0 0.00 0.00 0.00 67 1013.4
20260906093012 77 360 0.0 1.0 0.00 0.00 0.00 67 1013.4
20260906092513 77 360 0.0 1.0 0.00 0.00 0.00 67 1013.4
20260906092010 77 360 0.0 2.0 0.00 0.00 0.00 67 1013.5
20260906091526 77 360 0.0 2.0 0.00 0.00 0.00 68 1013.4
20260906091014 77 360 0.0 0.0 0.00 0.00 0.00 67 1013.5
20260906090516 77 360 0.0 0.0 0.00 0.00 0.00 66 1013.4
20260906090025 77 360 0.0 0.0 0.00 0.00 0.00 66 1013.4
20260906085516 77 360 0.0 0.0 0.00 0.00 0.00 66 1013.4
20260906085021 78 360 0.0 0.0 0.00 0.00 0.00 65 1013.3
20260906084529 78 360 0.0 0.0 0.00 0.00 0.00 65 1013.2
20260906084020 78 360 0.0 0.0 0.00 0.00 0.00 64 1013.3
20260906083521 78 360 0.0 0.0 0.00 0.00 0.00 64 1013.2
20260906083020 78 360 0.0 1.0 0.00 0.00 0.00 64 1013.2
20260906082509 78 360 0.0 1.0 0.00 0.00 0.00 63 1013.2
20260906082010 79 360 0.0 1.0 0.00 0.00 0.00 63 1013.2
20260906081530 79 360 0.0 0.0 0.00 0.00 0.00 63 1013.2
20260906081009 79 360 0.0 1.0 0.00 0.00 0.00 62 1013.3
20260906080512 79 360 0.0 1.0 0.00 0.00 0.00 62 1013.3
20260906080025 79 360 0.0 0.0 0.00 0.00 0.00 62 1013.3
20260906075515 79 360 0.0 0.0 0.00 0.00 0.00 61 1013.3
20260906075012 80 360 0.0 0.0 0.00 0.00 0.00 61 1013.3
20260906074527 80 360 0.0 0.0 0.00 0.00 0.00 60 1013.2
20260906074017 80 360 0.0 0.0 0.00 0.00 0.00 60 1013.2
20260906073515 80 360 0.0 1.0 0.00 0.00 0.00 60 1013.2
20260906073030 80 360 0.0 2.0 0.00 0.00 0.00 60 1013.2
20260906072518 80 360 0.0 2.0 0.00 0.00 0.00 60 1013.2
20260906072018 80 360 0.0 1.0 0.00 0.00 0.00 60 1013.3
20260906071513 80 360 0.0 0.0 0.00 0.00 0.00 59 1013.2
20260906071011 81 360 0.0 0.0 0.00 0.00 0.00 58 1013.3
20260906070513 81 360 0.0 0.0 0.00 0.00 0.00 58 1013.2
20260906070017 81 360 0.0 1.0 0.00 0.00 0.00 58 1013.2
20260906065513 81 360 0.0 1.0 0.00 0.00 0.00 57 1013.2
20260906065015 82 360 0.0 1.0 0.00 0.00 0.00 57 1013.2
20260906064533 82 360 0.0 1.0 0.00 0.00 0.00 56 1013.2
20260906064018 82 360 0.0 0.0 0.00 0.00 0.00 56 1013.2
20260906063514 82 360 0.0 2.0 0.00 0.00 0.00 55 1013.3
20260906063030 83 360 0.0 2.0 0.00 0.00 0.00 55 1013.3
20260906062519 83 360 0.0 2.0 0.00 0.00 0.00 55 1013.3
20260906062018 83 360 0.0 3.0 0.00 0.00 0.00 54 1013.3
20260906061532 83 360 0.0 3.0 0.00 0.00 0.00 54 1013.3
20260906061019 83 360 1.0 3.0 0.00 0.00 0.00 54 1013.3
20260906060516 83 360 0.0 2.0 0.00 0.00 0.00 54 1013.3
20260906060015 83 360 1.0 3.0 0.00 0.00 0.00 54 1013.3
20260906055512 83 360 1.0 3.0 0.00 0.00 0.00 53 1013.3
20260906055012 84 360 1.0 3.0 0.00 0.00 0.00 53 1013.3
20260906054523 84 360 0.0 2.0 0.00 0.00 0.00 53 1013.3
20260906054014 84 360 1.0 2.0 0.00 0.00 0.00 53 1013.3
20260906053514 84 360 0.0 2.0 0.00 0.00 0.00 52 1013.2
20260906053030 84 193 0.0 3.0 0.00 0.00 0.00 52 1013.2
20260906052514 84 360 1.0 3.0 0.00 0.00 0.00 52 1013.2
20260906052016 85 360 1.0 3.0 0.00 0.00 0.00 51 1013.2
20260906051534 85 360 0.0 5.0 0.00 0.00 0.00 51 1013.1
20260906051018 85 360 2.0 5.0 0.00 0.00 0.00 51 1013.0
20260906050517 85 360 2.0 5.0 0.00 0.00 0.00 50 1013.0
20260906050054 85 360 2.0 4.0 0.00 0.00 0.00 50 1013.0
20260906045519 85 360 2.0 4.0 0.00 0.00 0.00 50 1013.0
20260906045021 86 209 2.0 4.0 0.00 0.00 0.00 50 1013.0
20260906044503 86 360 2.0 4.0 0.00 0.00 0.00 50 1013.0
20260906044002 86 360 2.0 4.0 0.00 0.00 0.00 50 1013.0
20260906043502 86 360 2.0 3.0 0.00 0.00 0.00 50 1013.1
20260906043006 86 360 1.0 3.0 0.00 0.00 0.00 49 1013.2
20260906042501 86 209 1.0 3.0 0.00 0.00 0.00 49 1013.1
20260906042002 86 360 1.0 3.0 0.00 0.00 0.00 49 1013.2
20260906041504 86 360 1.0 4.0 0.00 0.00 0.00 48 1013.1
20260906041005 87 360 1.0 4.0 0.00 0.00 0.00 48 1013.1
20260906040507 87 360 1.0 4.0 0.00 0.00 0.00 48 1013.1
20260906040011 87 360 2.0 4.0 0.00 0.00 0.00 48 1013.1
20260906035508 87 360 1.0 4.0 0.00 0.00 0.00 48 1013.2
20260906035009 87 360 2.0 4.0 0.00 0.00 0.00 47 1013.2
20260906034515 87 360 1.0 4.0 0.00 0.00 0.00 47 1013.1
20260906034011 87 360 0.0 4.0 0.00 0.00 0.00 47 1013.1
20260906033502 88 360 1.0 4.0 0.00 0.00 0.00 47 1013.1
20260906033004 88 360 1.0 4.0 0.00 0.00 0.00 47 1013.0
20260906032503 88 360 1.0 4.0 0.00 0.00 0.00 47 1013.1
20260906032004 88 360 1.0 4.0 0.00 0.00 0.00 46 1013.1
20260906031504 88 360 0.0 4.0 0.00 0.00 0.00 46 1013.1
20260906031005 88 360 2.0 4.0 0.00 0.00 0.00 46 1013.2
20260906030505 88 360 1.0 2.0 0.00 0.00 0.00 46 1013.1
20260906030009 88 360 1.0 2.0 0.00 0.00 0.00 46 1013.1
20260906025506 88 360 1.0 2.0 0.00 0.00 0.00 46 1013.1
20260906025009 88 360 1.0 3.0 0.00 0.00 0.00 46 1013.0
20260906024512 88 360 1.0 3.0 0.00 0.00 0.00 46 1013.0
20260906024008 88 360 0.0 2.0 0.00 0.00 0.00 45 1013.0
20260906023513 89 360 1.0 2.0 0.00 0.00 0.00 45 1013.0
20260906023018 89 360 0.0 2.0 0.00 0.00 0.00 45 1012.9
20260906022512 89 360 0.0 2.0 0.00 0.00 0.00 45 1012.8
20260906022005 89 360 0.0 2.0 0.00 0.00 0.00 45 1012.8
20260906021502 89 360 0.0 1.0 0.00 0.00 0.00 45 1012.7
20260906021003 89 360 0.0 1.0 0.00 0.00 0.00 45 1012.6
20260906020506 89 360 0.0 1.0 0.00 0.00 0.00 44 1012.6
20260906020005 90 360 0.0 2.0 0.00 0.00 0.00 44 1012.6
20260906015504 90 360 0.0 2.0 0.00 0.00 0.00 44 1012.5
20260906015005 90 360 0.0 1.0 0.00 0.00 0.00 43 1012.5
20260906014510 90 360 0.0 1.0 0.00 0.00 0.00 43 1012.4
20260906014011 91 360 0.0 1.0 0.00 0.00 0.00 42 1012.3
20260906013506 91 360 0.0 2.0 0.00 0.00 0.00 42 1012.2
20260906013033 91 360 0.0 2.0 0.00 0.00 0.00 41 1012.2
20260906012513 92 360 0.0 2.0 0.00 0.00 0.00 41 1012.1
20260906012013 92 119 0.0 1.0 0.00 0.00 0.00 40 1011.9
20260906011523 93 119 0.0 2.0 0.00 0.00 0.00 40 1011.9
20260906011012 93 119 0.0 2.0 0.00 0.00 0.00 39 1011.9
20260906010507 93 119 0.0 4.0 0.00 0.00 0.00 39 1011.8
20260906010003 94 119 0.0 4.0 0.00 0.00 0.00 38 1011.8
20260906005501 94 169 0.0 4.0 0.00 0.00 0.00 38 1011.9
20260906005003 94 169 0.0 4.0 0.00 0.00 0.00 37 1011.8
20260906004508 95 169 1.0 7.0 0.00 0.00 0.00 37 1011.7
20260906004007 95 177 2.0 7.0 0.00 0.00 0.00 36 1011.7
20260906003509 95 148 2.0 6.0 0.00 0.00 0.00 36 1011.6
20260906003010 96 167 2.0 5.0 0.00 0.00 0.00 36 1011.7
20260906002508 96 133 1.0 6.0 0.00 0.00 0.00 36 1011.7
20260906002008 96 159 3.0 8.0 0.00 0.00 0.00 35 1011.8
20260906001535 97 150 1.0 8.0 0.00 0.00 0.00 35 1011.7
20260906001014 97 134 3.0 7.0 0.00 0.00 0.00 34 1011.7
20260906000514 97 131 3.0 8.0 0.00 0.00 0.00 34 1011.7
20260906000030 97 121 1.0 8.0 0.00 0.00 0.00 34 1011.6
20260905235515 98 185 2.0 8.0 0.00 0.00 0.00 34 1011.5
20260905235013 98 126 2.0 8.0 0.00 0.00 0.00 34 1011.5
20260905234504 98 121 2.0 9.0 0.00 0.00 0.00 34 1011.5
20260905234007 98 59 3.0 9.0 0.00 0.00 0.00 33 1011.4
20260905233508 98 148 2.0 6.0 0.00 0.00 0.00 33 1011.4
20260905233021 98 120 2.0 7.0 0.00 0.00 0.00 33 1011.3
20260905232514 98 125 2.0 11.0 0.00 0.00 0.00 33 1011.3
20260905232008 98 110 4.0 11.0 0.00 0.00 0.00 33 1011.3
20260905231514 98 140 4.0 9.0 0.00 0.00 0.00 33 1011.2
20260905231011 99 118 2.0 7.0 0.00 0.00 0.00 33 1011.2
20260905230509 98 81 2.0 9.0 0.00 0.00 0.00 33 1011.3
20260905230020 98 180 4.0 9.0 0.00 0.00 0.00 33 1011.3
20260905225513 99 152 3.0 8.0 0.00 0.00 0.00 33 1011.2
20260905225014 99 105 5.0 8.0 0.00 0.00 0.00 33 1011.3
20260905224525 98 154 4.0 8.0 0.00 0.00 0.00 33 1011.1
20260905224017 99 207 5.0 9.0 0.00 0.00 0.00 33 1011.2
20260905223519 98 159 4.0 10.0 0.00 0.00 0.00 33 1011.2
20260905223004 98 130 4.0 13.0 0.00 0.00 0.00 33 1011.2
20260905222506 98 153 4.0 13.0 0.00 0.00 0.00 34 1011.1
20260905222011 98 140 4.0 13.0 0.00 0.00 0.00 34 1011.2
20260905221511 98 61 6.0 13.0 0.00 0.00 0.00 34 1011.2
20260905221010 98 107 3.0 8.0 0.00 0.00 0.00 34 1011.2
20260905220509 98 156 3.0 9.0 0.00 0.00 0.00 34 1011.3
20260905220017 98 148 5.0 9.0 0.00 0.00 0.00 34 1011.4
20260905215512 98 228 2.0 8.0 0.00 0.00 0.00 34 1011.4
20260905215011 98 180 4.0 12.0 0.00 0.00 0.00 35 1011.5
20260905214523 98 139 5.0 12.0 0.00 0.00 0.00 34 1011.6
20260905214014 99 141 6.0 12.0 0.00 0.00 0.00 34 1011.6
20260905213516 99 134 4.0 10.0 0.00 0.00 0.00 34 1011.6
20260905213028 99 210 5.0 10.0 0.00 0.00 0.00 35 1011.6
20260905212516 99 197 4.0 10.0 0.00 0.00 0.00 34 1011.6
20260905212018 99 162 4.0 10.0 0.00 0.00 0.00 34 1011.7
20260905211530 99 139 3.0 10.0 0.00 0.00 0.00 35 1011.9
20260905211007 98 162 3.0 12.0 0.00 0.00 0.00 35 1011.9
20260905210510 98 167 8.0 12.0 0.00 0.00 0.00 34 1011.9
20260905210011 99 106 4.0 10.0 0.00 0.00 0.00 35 1012.0
20260905205511 99 243 3.0 10.0 0.00 0.00 0.00 35 1012.1
20260905205012 98 81 5.0 11.0 0.00 0.00 0.00 36 1012.2